[Iaude] MPEC M32: 2024 LF6 [a=2.11,e=0.40,i=4.1,H=22.6]

mpec at cfa.harvard.edu mpec at cfa.harvard.edu
Wed Jun 19 20:27:56 EDT 2024


M.P.E.C. 2024-M32                                 Issued 2024 June 20, 00:26 UT

     The Minor Planet Electronic Circulars contain information on unusual
         minor planets, routine data on comets and natural satellites,
         and occasional editorial announcements.  They are published
    on behalf of Division F of the International Astronomical Union by the
          Minor Planet Center, Smithsonian Astrophysical Observatory,
                          Cambridge, MA 02138, U.S.A.
			  
             Prepared using the Tamkin Foundation Computer Network

                              MPC at CFA.HARVARD.EDU
            URL https://www.minorplanetcenter.net/    ISSN 1523-6714

                                    2024 LF6                                    


Observations:
     K24L06F* C2024 06 15.53969720 02 52.621-22 30 41.15         21.84wXEM032F51
     K24L06F  C2024 06 15.54356520 02 52.964-22 30 36.87         21.85wXEM032F51
     K24L06F  C2024 06 15.54743520 02 53.316-22 30 32.45         22.05wXEM032F51
     K24L06F  C2024 06 15.55007920 02 53.551-22 30 29.50         21.81wXEM032F51
     K24L06F  C2024 06 15.57215920 02 55.542-22 30 04.78         21.96wXEM032F51
     K24L06F  C2024 06 15.58318920 02 56.545-22 29 52.64         21.47wXEM032F51
     K24L06F  C2024 06 15.59389620 02 57.512-22 29 40.50         21.52GVEM032F51
     K24L06F  C2024 06 15.59454120 02 57.576-22 29 39.77         21.39GVEM032F51
     K24L06F KC2024 06 16.41381 20 04 21.22 -22 14 32.7                VEM032291
     K24L06F KC2024 06 16.42442 20 04 22.17 -22 14 20.8                VEM032291
     K24L06F KC2024 06 16.43151 20 04 22.79 -22 14 12.9                VEM032291
     K24L06F 1C2024 06 16.49939420 04 30.210-22 12 52.94         21.57GVEM032T12
     K24L06F 1C2024 06 16.50121420 04 30.386-22 12 50.78         21.46GVEM032T12
     K24L06F 1C2024 06 16.50495420 04 30.712-22 12 46.69         21.52GVEM032T12
     K24L06F KC2024 06 17.33402 20 05 53.14 -21 57 17.5                VEM032291
     K24L06F KC2024 06 17.35532 20 05 55.04 -21 56 54.2                VEM032291
     K24L06F  C2024 06 19.56514320 09 23.493-21 14 45.97         21.63GVEM032F51
     K24L06F  C2024 06 19.56595920 09 23.554-21 14 44.91         21.40GVEM032F51

Observer details:
291 LPL/Spacewatch II.  Observer T. H. Bressi.  1.8-m f/2.7 reflector + CCD.
F51 Pan-STARRS 1, Haleakala.  Observers J. Herman, T. Lowe, P. Minguez, A.
    Schultz, I. Smith.  Measurers K. Chambers, T. de Boer, J. Fairlamb, H.
    Gao, M. Huber, C.-C. Lin, E. Magnier, Y. Ramanjooloo, R. Wainscoat, R.
    Weryk.  1.8-m Ritchey-Chretien + CCD.
T12 University of Hawaii 88-inch telescope, Maunakea.  Observers J. Fairlamb,
    L. Benavitz, K. Toguchi-Tani.  Measurers R. Weryk, J. Fairlamb, Y.
    Ramanjooloo, R. Wainscoat.  2.24-m f/10.1 reflector + CCD.

Orbital elements:
2024 LF6                                                 Earth MOID = 0.2593 AU
Epoch 2024 Mar. 31.0 TT = JDT 2460400.5                 MPC                     
M 331.27953              (2000.0)            P               Q                  
n   0.32131917     Peri.    3.53987     +0.21620756     +0.97384509             
a   2.1111137      Node   278.95548     -0.89750915     +0.17007289             
e   0.3956178      Incl.    4.05530     -0.38435870     +0.15066835             
P   3.07           H   22.68          G   0.15           U   8                  
Residuals in seconds of arc
240615 F51  0.1+  0.0     240615 F51  0.1-  0.0     240616 T12  0.1+  0.0
240615 F51  0.0   0.0     240615 F51  0.1-  0.0     240616 T12  0.1+  0.0
240615 F51  0.0   0.1+    240616 291  0.1+  0.1+    240617 291  0.3-  0.3+
240615 F51  0.0   0.1+    240616 291  0.2+  0.1+    240617 291  0.2+  0.0
240615 F51  0.1-  0.2+    240616 291  0.0   0.1+    240619 F51  0.0   0.0
240615 F51  0.0   0.1-    240616 T12  0.1-  0.1-    240619 F51  0.0   0.1+

Ephemeris:
2024 LF6                 a,e,i = 2.11, 0.40, 4                   q = 1.2759
Date    TT    R. A. (2000) Decl.     Delta      r    Elong.  Phase     V
2024 05 21    19 07 23.3 -28 35 47   0.4020  1.3270   135.0    32.7    22.7
...
2024 06 05    19 42 36.6 -25 29 13   0.3376  1.2953   141.3    29.4    22.2
...
2024 06 13    19 58 24.1 -23 16 24   0.3126  1.2844   145.1    26.9    21.9
...
2024 06 19    20 08 31.5 -21 25 18   0.2981  1.2791   148.2    24.8    21.7
2024 06 20    20 10 03.5 -21 06 04   0.2961  1.2784   148.7    24.4    21.7
2024 06 21    20 11 32.8 -20 46 41   0.2941  1.2779   149.3    24.0    21.7
...
2024 06 27    20 19 29.9 -18 48 10   0.2844  1.2760   152.7    21.4    21.5
...
2024 07 05    20 27 26.4 -16 10 15   0.2771  1.2775   157.7    17.6    21.3
...
2024 07 20    20 35 26.1 -11 48 53   0.2817  1.2925   167.4     9.9    21.1

A. U. Tomatic                (C) Copyright 2024 MPC           M.P.E.C. 2024-M32





More information about the Iaude mailing list